Location: Artiguedieu
(43.5000°N, 0.5454°E)
Time: 22:31:25
(UTC+00:00)

Vanguard 1 Rocket - All Passes

Search period start: 28 July 2021 00:00
Search period end: 07 August 2021 00:00
Orbit: 650 x 4226 km, 34.3° (Epoch: 27 July)

Date Brightness Start Highest point End Pass type
(mag) Time Alt. Az. Time Alt. Az. Time Alt. Az.
28 Jul - 09:12:21 10° SSW 09:27:42 28° SSE 09:37:20 10° ESE daylight
28 Jul - 11:40:47 10° WSW 11:54:57 45° S 12:02:32 10° ESE daylight
28 Jul - 14:11:13 10° WSW 14:20:28 41° SSW 14:25:52 10° SE daylight
28 Jul - 16:41:17 10° WSW 16:44:12 14° SW 16:46:42 10° S daylight
29 Jul - 08:00:32 10° S 08:14:53 22° SSE 08:24:59 10° ESE daylight
29 Jul - 10:26:33 10° SW 10:42:53 41° SSE 10:51:55 10° E daylight
29 Jul - 12:57:10 10° WSW 13:09:20 48° S 13:15:51 10° ESE daylight
29 Jul - 15:27:28 10° W 15:33:50 26° SSW 15:38:11 10° SSE daylight
30 Jul - 06:51:18 10° S 07:01:49 15° SE 07:10:22 10° ESE daylight
30 Jul - 09:12:46 10° SSW 09:30:20 35° SSE 09:40:49 10° E daylight
30 Jul - 11:42:37 10° WSW 11:57:42 49° S 12:05:36 10° ESE daylight
30 Jul - 14:13:42 10° W 14:23:11 39° SSW 14:28:41 10° SE daylight
30 Jul - 16:46:10 10° SW 16:46:38 10° SW 16:47:05 10° SW daylight
31 Jul - 07:59:59 10° SSW 08:17:23 28° SSE 08:28:57 10° E daylight
31 Jul - 10:27:56 10° SW 10:45:34 47° SSE 10:55:02 10° E daylight
31 Jul - 12:59:25 10° WSW 13:12:04 49° S 13:18:47 10° ESE daylight
31 Jul - 15:30:22 10° W 15:36:22 22° SW 15:40:35 10° SSE daylight
01 Aug - 06:48:59 10° S 07:04:11 21° SE 07:15:42 10° ESE daylight
01 Aug - 09:13:35 10° SW 09:32:55 42° SSE 09:44:05 10° E daylight
01 Aug - 11:44:35 10° WSW 12:00:25 53° S 12:08:35 10° ESE daylight
01 Aug - 14:16:14 10° W 14:25:48 36° SSW 14:31:26 10° SE daylight
02 Aug - 05:41:46 10° SSE 05:50:57 13° SE 05:59:02 10° ESE daylight
02 Aug - 08:00:07 10° SSW 08:19:49 35° SSE 08:32:29 10° E daylight
02 Aug - 10:29:31 10° WSW 10:48:13 52° S 10:58:05 10° E daylight
02 Aug - 13:01:42 10° W 13:14:45 48° SSW 13:21:40 10° ESE daylight
02 Aug - 15:33:27 10° W 15:38:47 18° SW 15:42:41 10° S daylight
03 Aug - 06:48:05 10° SSW 07:06:28 27° SE 07:19:52 10° E daylight
03 Aug - 09:14:43 10° SW 09:35:26 48° SSE 09:47:10 10° E daylight
03 Aug - 11:46:38 10° WSW 12:03:06 55° S 12:11:32 10° ESE daylight
03 Aug - 14:18:48 10° W 14:28:19 32° SSW 14:34:01 10° SSE daylight
04 Aug - 05:38:23 10° S 05:53:05 19° SE 06:05:19 10° ESE daylight
04 Aug - 08:00:43 10° SW 08:22:12 41° SSE 08:35:44 10° E daylight
04 Aug - 10:31:17 10° WSW 10:50:50 56° S 11:01:02 10° ESE daylight
04 Aug - 13:04:01 10° W 13:17:21 45° SSW 13:24:28 10° SE daylight
04 Aug - 15:36:57 10° WSW 15:41:03 14° SW 15:44:19 10° SSW daylight
05 Aug - 04:35:47 10° SE 04:39:53 11° SE 04:43:51 10° ESE daylight
05 Aug - 06:47:58 10° SSW 07:08:40 34° SSE 07:23:28 10° E daylight
05 Aug - 09:16:08 10° SW 09:37:56 53° SSE 09:50:10 10° E daylight
05 Aug - 11:48:46 10° W 12:05:43 55° S 12:14:24 10° ESE daylight
05 Aug - 14:21:29 10° W 14:30:43 27° SW 14:36:26 10° SSE daylight
06 Aug - 05:37:01 10° S 05:55:06 25° SE 06:09:50 10° E daylight
06 Aug - 08:01:41 10° SW 08:24:32 48° SSE 08:38:49 10° E daylight
06 Aug - 10:33:10 10° WSW 10:53:24 59° S 11:03:58 10° ESE daylight
06 Aug - 13:06:22 10° W 13:19:50 42° SSW 13:27:09 10° SE daylight
06 Aug - 15:41:47 10° WSW 15:43:12 10° SW 15:44:31 10° SW daylight
